NJE497P LFPB-EGLC

Flight info

Callsign NJE497P
Flight time N/A
Altitude 18000
Route OPALE J20 ABB T22 RATUK L613 SOVAT
Aircraft C750/M-SBDE3FGHRWXY/S

Departure

Time 2026-05-05 01:45
Airport Paris-Le Bourget International Airport (LFPB)

Arrival

Time N/A
Airport London City Airport (EGLC)
Time Latitude Longitude Altitude Speed Heading
2026-05-05 01:27 48.96012 2.44443 193 ft 0 kts 226°
2026-05-05 01:38 48.96009 2.44438 198 ft 4 kts 226°
2026-05-05 01:38 48.96010 2.44404 192 ft 4 kts 294°
2026-05-05 01:39 48.96021 2.44366 196 ft 5 kts 293°
2026-05-05 01:39 48.96029 2.44312 194 ft 5 kts 254°
2026-05-05 01:39 48.95983 2.44261 197 ft 13 kts 205°
2026-05-05 01:39 48.95823 2.44149 192 ft 37 kts 205°
2026-05-05 01:40 48.95571 2.43972 183 ft 50 kts 205°
2026-05-05 01:40 48.95315 2.43768 180 ft 39 kts 208°
2026-05-05 01:40 48.95138 2.43586 178 ft 22 kts 260°
2026-05-05 01:40 48.95186 2.43397 177 ft 19 kts 296°
2026-05-05 01:41 48.95264 2.43335 177 ft 13 kts 25°
2026-05-05 01:41 48.95339 2.43387 178 ft 11 kts 25°
2026-05-05 01:41 48.95408 2.43436 179 ft 13 kts 24°
2026-05-05 01:41 48.95543 2.43531 181 ft 35 kts 24°
2026-05-05 01:42 48.95734 2.43665 183 ft 17 kts 24°
2026-05-05 01:42 48.95814 2.43606 183 ft 14 kts 293°
2026-05-05 01:42 48.95852 2.43476 183 ft 14 kts 293°
2026-05-05 01:42 48.95898 2.43325 184 ft 18 kts 295°
2026-05-05 01:43 48.95961 2.43129 183 ft 23 kts 301°
2026-05-05 01:43 48.96068 2.42918 181 ft 28 kts 309°
2026-05-05 01:43 48.96198 2.42669 178 ft 32 kts 309°
2026-05-05 01:43 48.96267 2.42404 175 ft 26 kts 266°
2026-05-05 01:44 48.96261 2.42139 172 ft 23 kts 283°
2026-05-05 01:44 48.96385 2.42090 170 ft 21 kts 44°
2026-05-05 01:44 48.96454 2.42297 174 ft 33 kts 68°
2026-05-05 01:44 48.96685 2.43163 194 ft 140 kts 68°
2026-05-05 01:45 48.97119 2.44789 391 ft 181 kts 68°
2026-05-05 01:45 48.97630 2.46683 1113 ft 204 kts 68°
2026-05-05 01:45 48.98164 2.48787 1956 ft 222 kts 71°
2026-05-05 01:45 48.98676 2.51087 2928 ft 235 kts 73°
2026-05-05 01:46 48.99082 2.53560 3900 ft 246 kts 73°
2026-05-05 01:46 48.99702 2.56021 4921 ft 252 kts 68°
2026-05-05 01:46 49.00379 2.58465 5927 ft 256 kts 67°
2026-05-05 01:46 49.01066 2.60982 6928 ft 258 kts 68°
2026-05-05 01:47 49.01754 2.63535 7941 ft 263 kts 68°
2026-05-05 01:47 49.02638 2.65986 8928 ft 270 kts 49°
2026-05-05 01:47 49.04219 2.67531 9891 ft 275 kts 19°
2026-05-05 01:47 49.06108 2.67733 10827 ft 275 kts 349°
2026-05-05 01:48 49.07848 2.66595 11862 ft 270 kts 329°
2026-05-05 01:48 49.09426 2.65106 12987 ft 265 kts 327°
2026-05-05 01:48 49.10976 2.63627 14039 ft 261 kts 328°
2026-05-05 01:48 49.12518 2.62190 14972 ft 259 kts 328°
2026-05-05 01:49 49.14051 2.60766 15891 ft 257 kts 328°
2026-05-05 01:49 49.15582 2.59334 16787 ft 259 kts 328°
2026-05-05 01:49 49.17209 2.57809 16832 ft 293 kts 328°
2026-05-05 01:49 49.19054 2.56080 16734 ft 328 kts 328°
2026-05-05 01:50 49.21082 2.54182 16790 ft 356 kts 328°
2026-05-05 01:50 49.23267 2.52134 16827 ft 381 kts 328°
2026-05-05 01:50 49.25592 2.49951 16899 ft 401 kts 328°
2026-05-05 01:50 49.27981 2.47706 17536 ft 404 kts 328°
2026-05-05 01:51 49.30377 2.45452 18213 ft 407 kts 328°
2026-05-05 01:51 49.32838 2.43133 18326 ft 424 kts 328°
2026-05-05 01:51 49.35168 2.40963 18985 ft 366 kts 331°
2026-05-05 01:51 49.37516 2.40022 20213 ft 324 kts 356°
2026-05-05 01:52 49.39535 2.40022 22077 ft 285 kts
2026-05-05 01:52 49.41575 2.40025 22472 ft 305 kts 359°
2026-05-05 01:52 49.43653 2.40066 23538 ft 278 kts
2026-05-05 01:52 49.45553 2.40137 24207 ft 279 kts 360°
2026-05-05 01:53 49.47435 2.40109 25036 ft 259 kts 358°
2026-05-05 01:53 49.49066 2.40046 26384 ft 219 kts 358°
2026-05-05 01:53 49.50535 2.40012 27160 ft 198 kts
2026-05-05 01:53 49.51848 2.40087 27941 ft 187 kts
2026-05-05 01:54 49.53323 2.40192 27367 ft 240 kts
2026-05-05 01:54 49.55151 2.40353 26959 ft 281 kts
2026-05-05 01:54 49.57178 2.40527 26970 ft 303 kts
2026-05-05 01:54 49.59350 2.40666 27079 ft 318 kts
2026-05-05 01:55 49.61575 2.40792 27522 ft 320 kts
2026-05-05 01:55 49.63805 2.40927 28402 ft 315 kts
2026-05-05 01:55 49.65943 2.41049 29653 ft 303 kts
2026-05-05 01:55 49.68087 2.41116 30042 ft 317 kts
2026-05-05 01:56 49.70405 2.41157 29506 ft 351 kts
2026-05-05 01:56 49.72977 2.41118 28592 ft 388 kts 358°
2026-05-05 01:56 49.75779 2.40975 27846 ft 412 kts 356°
2026-05-05 01:56 49.78549 2.40661 28602 ft 385 kts 358°
2026-05-05 01:57 49.81161 2.40659 29740 ft 365 kts
2026-05-05 01:57 49.83053 2.40747 30487 ft 337 kts